Погода в Эсперансе

Австралия     33°51′38″S   121°53′36″E
темп.,
°C
ветер,
м/с
пор.,
м/с
влажн.,
%
обл.,
%
осадки,
мм/ч
давл.,
гПа
погр.,
м
8 марта, пн
пн823:00+18вюв358417 0.0 1017337
02:00+17всв22899 0.0 101694
05:00+17всв249383 0.0 1017138
08:00+19св127782 0.0 1018443
11:00+22вюв3462100 0.0 1018973
14:00+24ююв5555100 0.1 10161057
17:00+21юв6867100 0.0 1017679
20:00+19вюв5979100 0.1 1019519
9 марта, вт
вт923:00+19в4777100 0.0 1019572
02:00+18в498197 0.0 1018479
05:00+17в488790 0.0 1018433
08:00+19всв577769 0.0 1019707
11:00+23всв455562 0.1 10191206
14:00+25вюв665060 0.2 10161332
17:00+24вюв78531 0.0 1016990
20:00+21в611660 0.0 1017578
10 марта, ср
ср1023:00+18всв611730 0.0 1017410
02:00+18св612740 0.0 1015400
05:00+18св5127162 0.0 1016391
08:00+20ссв6115880 0.0 1016494
11:00+27с5638100 0.0 1016930
14:00+30ссв1430100 0.0 10131854
17:00+26юв4547100 0.0 1013202
20:00+24в3551100 0.0 1013151
11 марта, чт
чт1123:00+22св71255100 0.0 1013350
02:00+22св61159100 0.8 1012365
05:00+21всв51063100 0.9 1012436
08:00+21св51163100 1.7 1012444
11:00+26ссв6948100 2.3 1011897
14:00+29с71044100 2.7 10081172
17:00+30ссз6942100 0.0 1007866
20:00+25зюз2356100 0.0 100941
12 марта, пт
пт1223:00+23з236587 0.0 100950
02:00+21з597694 0.0 1009266
05:00+20зюз61086100 0.0 1010488
08:00+20юз6984100 0.1 1012656
11:00+21юз6877100 0.1 1012758
14:00+20ююз91284100 0.7 1014701
17:00+18ююз81082100 0.4 1016766
20:00+17ююз897299 0.7 10191001